STARLINK-11435, 62891

Orbit data source: Space-Track

STARLINK-11435, 62891 is a payload satellite owned by SpaceX/Seattle (US) in LEO that was launched on Tue, 04 Feb 2025 UTC via an FALCON 9 launch vehicle from the Air Force Eastern Test Range (AFETR). Payload-class satellites include a variety of spacecraft equipped with specific instruments for various scientific and technological missions. These include communications satellites like Starlink; space stations such as the ISS; scientific satellites like the Hubble; Earth observation satellites from companies like Planet Labs, Umbra, and HawkEye 360; GPS; miniature CubeSats for education and research; and military/defense satellites.

Loading next visibility...
Identifier
62891, 2025-024N
Orbit
LEO
Last TLE update
15 hours ago
Origin
Manufacturer
SpaceX/Seattle
Mission
Operational Commercial Communications
Bus & Motor
STARLINK V2M, Unknown motor
Mass
730 kg wet, ~700 kg dry
Launch date (UTC)
2025-02-04 (5 months ago)
Launch vehicle
FALCON 9
Launch site
Air Force Eastern Test Range (AFETR)
Object type
Payload
Rocket body
Debris
Shape & HBR
Box + 2 Pan, 29 m
Radar Cross Section
36.964 m², Large (>1 m²)

Expand to show TLE details & history

TLE from 15 hours ago
0 STARLINK-11435
1 62891U 25024N   25183.24302546  .00146273  00000-0  11197-2 0  9998
2 62891  42.9990 251.4403 0002155 273.7235  86.3386 15.70919630 24070
Epoch: 2025-07-02T05:49Z
TLE epoch observation values (Epoch: 2025-07-02T05:49:57.399Z)
Latitude
-0.00004°
Longitude
-116.57584°
Altitude
355.946 km
Speed
7.698 km/s
True Right ascension
16h 45m 45s
True Declination
0° 00' 00"
Sunlit
Object was in full shadow at epoch
Visualization orbit readout
Latitude
-5.57806°
Longitude
65.7504°
Altitude
356.422 km
Speed
7.697 km/s
Apparent Right ascension
01h 47m 58s
Apparent Declination
-43° 31' 48"
Sunlit
Object is in daylight
Visualization observer readout
Local Sidereal Time
08:05:44
Azimuth
235.746° WSW
Elevation
-29.012°
Doppler factor
1
Orbital elements
Apogee altitude
359.701 km
Perigee altitude
356.798 km
Semi-major axis
6,736.386 km
Eccentricity
0.00022
Inclination
42.999°
RAAN
251.4403°
Arg. of periapsis
273.7235°
True anomaly
Unknown
Mean anomaly
86.3386°
Eccentric anomaly
Unknown
Mean motion
3.92557 °/min
Orbital period
91.71 mins
BSTAR
0.0011197
Loading maneuver chart data...
Loading SW <> Apogee altitude chart data...
Loading historical data...
Loading historical data...
Loading historical data...
Loading historical data...
Loading historical data...
Loading historical data...
Loading historical data...

STARLINK-11435 Visibility forecast

Observer location: undefined°, undefined°

Span
Click to sort rows by Start time (UTC) header in descending order
Start Az.
Max El. time (UTC)
Max El. Az.
Max El.
End time (UTC)
End Az.
5 mins2025-07-03 07:59:42.882Z223.099° SW2025-07-03 08:01:42.882Z169.62° S33.573°2025-07-03 08:04:42.882Z81.203° E
4 mins2025-07-03 09:36:42.882Z285.723° WNW2025-07-03 09:37:42.882Z324.451° NNW36.95°2025-07-03 09:40:42.882Z68.014° E
4 mins2025-07-03 11:12:42.882Z300.643° NW2025-07-03 11:14:42.882Z36.583° NE35.289°2025-07-03 11:16:42.882Z82.307° E
4 mins2025-07-03 12:48:42.882Z273.598° WNW2025-07-03 12:50:42.882Z182.241° SSW36.567°2025-07-03 12:52:42.882Z131.003° SE
|